User: anonymous   Login
Location: Unspecified
(0.0000°N, 0.0000°E)
Time: 05:31:09
(UTC+00:00)
Language:

Snapshot - Orbit

View from above orbital plane
View from above orbital plane
View from above satellite
View from above satellite

Ground track
Ground track

The orbit data is extracted from the following two-line orbital elements,

1  1314U 65027A   17083.96817550 +.00000051 +00000-0 +16168-3 0  9990
2  1314 090.3022 282.3960 0032053 080.3509 096.4071 12.91749112195789
Epoch (UTC): 24 March 2017 23:14:10
Eccentricity: 0.0032053
inclination: 90.3022°
perigee height: 1270 km
apogee height: 1319 km
right ascension of ascending node: 282.3960°
argument of perigee: 80.3509°
revolutions per day: 12.91749112
mean anomaly at epoch: 96.4071°
orbit number at epoch: 19578

The dashed part of the orbit path shows where the satellite is in the earth's shadow,  

DLR